www.pogodaiklimat.ru

Погода и климат >> Архив погоды >> Малайзия >> Johore Bharu / Senai


ПОГОДА в Johore Bharu / Senai

  • Прогноз погоды в Johore Bharu / Senai
  • Монитор погоды в Johore Bharu / Senai
  • Климат города

АРХИВ ПОГОДЫ в Johore Bharu / Senai

Время (UTC), дата Ветер
(напр.,м/с)
 
Видим.   Явления Облачность Т
(С)
Тd
(С)
f
(%)
Тe
(С)
Тes
(С)
Комфортность P
(гПа)
Po
(гПа)
Тmin
(С)
Tmax
(С)
R
(мм)
R24
(мм)
S
(см)
06 11.10 С 5 3000 м слабый ливневой дождь 9/4 240 м
[Cb cap Ac lent Ci sp]
+26.1 +24.0 88 +36 +40 очень
душно
1008.6 1004.3 0.0
12 11.10 СВ 1 10 км дымка {гроза, дождь} 9/1 300 м
[St Ac lent Cs]
+24.6 +23.9 96 +34 +34 очень
душно
1009.9 1005.5 +32.4 16
18 11.10 штиль 0 14 км {дождь} 9/3 660 м
[Sc Ac und Cs]
+24.1 +23.3 95 +32 +32 очень
душно
1011.9 1007.5 0.4
00 12.10 С 2 26 км {дождь} 9/3 240 м
[St Ac und Ci sp]
+24.3 +23.5 95 +33 +33 очень
душно
1011.9 1007.5 +23.6 17
06 12.10 З 2 28 км 9/4 540 м
[Cu hum Ac trans Ci sp]
+29.4 +24.9 77 +42 +50 опасность
перегрева
1010.4 1006.1
12 12.10 штиль 0 12 км слабый ливневой дождь, в посл. час гроза 9/4 500 м
[Cb cap Ac lent Cs]
+26.0 +24.7 93 +37 +37 очень
душно
1011.0 1006.7 +30.2 29
18 12.10 штиль 0 8000 м слабый дождь 9/3 300 м
[Sc Ac lent Cs]
+24.8 +24.4 98 +35 +35 очень
душно
1011.7 1007.3 0.6
00 13.10 З 1 5000 м дымка 9/1 300 м
[St Ac und Ci sp]
+24.7 +24.2 97 +34 +35 очень
душно
1012.3 1007.9 +23.9 30
03 13.10 З 1 5000 м дымка 9/1 300 м
[St Ac und Ci sp]
+24.7 +24.2 97 +34 +44 очень
душно
1012.3 1007.9 +23.9 30
06 13.10 ЮЗ 2 16 км в посл. час ливневой дождь 9/3 540 м
[Cu hum Ac lent Cs]
+28.0 +25.2 85 +41 +49 опасность
перегрева
1010.7 1006.4 0.0
12 13.10 В 2 9000 м мгла 9/1 660 м
[Sc Ac und Cs]
+26.8 +25.0 90 +39 +39 очень
душно
1010.7 1006.4 +29.6
18 13.10 С 1 6000 м зарница 9/4 240 м
[Cb cap Ac und Ci sp]
+25.1 +24.5 96 +35 +35 очень
душно
1011.9 1007.5
00 14.10 З 3 10 км слабый дождь 9/5 300 м
[Cb cap Ac lent Ci sp]
+23.6 +23.1 97 +31 +32 очень
душно
1013.2 1008.8 +23.5 5
06 14.10 В 1 9000 м слабый дождь {ливн. осадки} 9/4 240 м
[Sc Ac lent Cs]
+25.4 +24.5 95 +36 +44 очень
душно
1012.2 1007.8 2
12 14.10 СВ 1 14 км {дождь} 9/1 660 м
[Sc Ac lent Ci sp]
+25.9 +25.1 95 +37 +37 очень
душно
1012.0 1007.7 +27.3 0.0
18 14.10 штиль 0 8000 м дымка 9/1 300 м
[St Ac und Ci sp]
+24.4 +24.1 98 +34 +34 очень
душно
1012.0 1007.6
00 15.10 штиль 0 5000 м дымка 9/1 300 м
[St Ac und Ci sp]
+24.5 +24.1 98 +34 +35 очень
душно
1011.6 1007.2 +23.5 2
06 15.10 Ю 3 14 км гроза без осадков 9/3 480 м
[Cb cap Ac trans Ci sp]
+32.1 +25.8 69 +47 +54 опасность
перегрева
1009.7 1005.4
12 15.10 СВ 1 10 км мгла 9/1 660 м
[Sc Ac trans Ci sp]
+26.2 +24.9 93 +37 +37 очень
душно
1010.8 1006.5 +33.1
18 15.10 штиль 0 8000 м дымка 8/3 300 м
[St Ac trans Ci sp]
+24.1 +23.6 97 +33 +33 очень
душно
1011.4 1007.0
00 16.10 С 1 6000 м дымка 9/3 240 м
[St Ac trans Ci sp]
+24.4 +23.7 96 +33 +34 очень
душно
1011.9 1007.5 +23.1
06 16.10 СЗ 3 14 км гроза без осадков 9/4 480 м
[Cb cap Ac trans Ci sp]
+30.1 +25.8 78 +45 +51 опасность
перегрева
1009.8 1005.5
12 16.10 С 1 800 м туман {гроза, ливн. осадки} 9/3 150 м
[St Ac lent Ci sp]
+24.4 +24.1 98 +34 +34 очень
душно
1010.6 1006.2 +31.3 50
18 16.10 С 1 1200 м дымка {туман} 8/1 240 м
[Sc Ac trans Ci sp]
+23.2 +22.9 98 +32 +32 очень
душно
1011.3 1006.9
00 17.10 штиль 0 2000 м дымка {туман} 9/1 300 м
[St Ac As]
+23.8 +23.7 99 +32 +33 очень
душно
1011.9 1007.5 +23.1 50
06 17.10 З 2 4000 м ливневой дождь 9/4 270 м
[Cb cap Ac lent Ci sp]
+27.8 +26.0 90 +42 +49 опасность
перегрева
1009.9 1005.6 8
12 17.10 С 1 7000 м дымка {гроза, ливн. осадки} 9/3 300 м
[Sc Ac lent Ci sp]
+25.2 +24.9 98 +36 +36 очень
душно
1009.1 1004.8 +31.1 1
18 17.10 СЗ 1 9000 м гроза без осадков 9/3 300 м
[Cb cap Ac lent Ci sp]
+24.0 +23.6 98 +33 +33 очень
душно
1010.2 1005.8

 

Местоположение метеостанции Johore Bharu / Senai (Малайзия): широта 1.63 долгота 103.67 высота над уровнем моря 37 м.

В архиве по умолчанию представлена погода в Johore Bharu / Senai за последнюю неделю. Архивные данные за месяц целиком и за предыдущие месяцы, начиная с января 2011 года, Вы можете получить, выбрав интересующий диапазон дат из раскрывающегося списка и нажав кнопку "Ввод!".


*Определитесь, кто Вы:
робот инопланетянин человек

Внимание! Время в таблицах - всемирное. Для получения местного времени необходимо прибавить поправку, которая в Johore Bharu / Senai равна 7 ч.

Смотрите также архив погоды в соседних городах и на ближайших метеорологических станциях:

Погода в Singapore (Сингапур) (45 км)
Погода в Batam Hang Nadim Airport (Индонезия) (75 км)
Погода в Tanjung Pinang (Индонезия) (124 км)
Погода в Malacca (Малайзия) (173 км)
Погода в Kuantan (Малайзия) (245 км)
Погода в Kuala Lumpur Int Airport (Малайзия) (250 км)
Погода в Singkep Dabo Airport (Индонезия) (256 км)
Погода в Rengat Japura Airport (Индонезия) (265 км)
Погода в Pekanbaru (Индонезия) (279 км)
Погода в Kuala Lumpur (Малайзия) (288 км)

Пояснения к столбцам:

Ветер - указаны скорость ветра в м/с - средняя за 10 мин, порывы в срок и между сроками (в фигурных скобках) и направление, откуда дует ветер: С - северный, СВ - северо-восточный, В - восточный, ЮВ - юго-восточный, Ю - южный, ЮЗ - юго-западный, З - западный, СЗ - северо-западный.
Видимость - горизонтальная дальность видимости в метрах или километрах. При видимости от 1 до 10 км при отсутствии осадков обычно наблюдается дымка, при ухудшении видимости до 1 км и менее - туман. В сухую погоду видимость может ухудшаться дымом, пылью или мглою.
Явления - указаны атмосферные явления, наблюдавшиеся в срок или в последний час перед сроком; фигурными скобками обозначены явления, наблюдавшиеся между сроками (за 1-3 часа до срока); квадратными скобками обозначены град или гололедные отложения с указанием их диаметра в мм.
Облачность - указаны через наклонную черту общая и нижняя облачность в баллах и высота нижней границы облаков в метрах; квадратными скобками обозначены формы облаков: Ci - перистые, Cs - перисто-слоистые, Cc - перисто-кучевые, Ac - высококучевые, As - высокослоистые, Sc - слоисто-кучевые, Ns - слоисто-дождевые, Cu - кучевые, Cb - кучево-дождевые. Подробнее классификацию облаков см. в Атласе облаков (PDF).
T - Температура воздуха - температура, измеренная на высоте 2 м над землей.
Td - Температура точки росы - температура, при понижении до которой содержащийся в воздухе водяной пар достигнет насыщения.
f - Относительная влажность воздуха - влажноcть воздуха, измеренная на высоте 2 м над землей.
Te - Эффективная температура - температура, которую ощущает одетый по сезону человек в тени. Характеристика душности погоды. При расчете учитывается влияние влажности воздуха и скорости ветра на теплоощущения человека.
Tes - Эффективная температура на солнце - температура, которую ощущает человек, с поправкой на солнечный нагрев. Характеристика знойности погоды. Зависит от высоты солнца над горизонтом, облачности и скорости ветра. Ночью, в пасмурную погоду, а также при ветре 12 м/с и более поправка равна нулю.
P - Атмосферное давление - приведенное к уровню моря атмосферное давление.
Po - Атмосферное давление - измеренное на уровне метеостанции атмосферное давление.
Tmin - Минимальная температура - минимум температуры воздуха на высоте 2 м над землей.
Tmax - Максимальная температура - максимум температуры воздуха на высоте 2 м над землей.
R - Количество осадков - Количество выпавших осадков за период времени, мм. При наведении курсора мыши на число - период времени, за который выпало указанное количество осадков.
R24 - Количество осадков - Количество выпавших осадков за 24 часа, мм.
S - Снежный покров - Высота снежного покрова, см. При наведении курсора мыши на число - состояние снежного покрова и степень покрытия местности в баллах.